User: anonymous   Login
Location: Unspecified
(49.2170°N, 0.0000°E)
Time: 02:04:42
(UTC+00:00)
Language:

S-56A Canister/Altair - Orbit

View from above orbital plane
View from above orbital plane
View from above satellite
View from above satellite

Ground track
Ground track

The orbit data is extracted from the following two-line orbital elements,

1 00082U 61004B   21125.30375740 -.00000111  00000-0 -60746-4 0  9993
2 00082  38.8595  86.6033 1176089 196.9732 158.8162 12.26038524847312
Epoch (UTC): 05 May 2021 07:17:24
Eccentricity: 0.1176089
inclination: 38.8595°
perigee height: 632 km
apogee height: 2500 km
right ascension of ascending node: 86.6033°
argument of perigee: 196.9732°
revolutions per day: 12.26038524
mean anomaly at epoch: 158.8162°
orbit number at epoch: 84731

The dashed part of the orbit path shows where the satellite is in the earth's shadow,  

DLR